Waarnemingen

Advertentie
Mijn weer
Elsenborn, België (6496): temperatuur & dauwpunt: 30.11.2019 02:00:00 - 06.12.2019 02:00:00 (CET)Elsenborn, België (6496): windsnelheid & windstoten: 30.11.2019 02:00:00 - 06.12.2019 02:00:00 (CET)Elsenborn, België (6496): windrichting: 30.11.2019 02:00:00 - 06.12.2019 02:00:00 (CET)Elsenborn, België (6496): luchtdruk: 30.11.2019 02:00:00 - 06.12.2019 02:00:00 (CET)Elsenborn, België (6496): zicht: 30.11.2019 02:00:00 - 06.12.2019 02:00:00 (CET)
Datum & Tijd tt [°C] td [°C] ff [km/u] ff [kn] fx [km/u] fx [kn] dd ppp [hPa] vv [km]
06.12.2019 02:00:00 -3,7 -4,5 7 4 18 10 ZZW 1020,6 4,5
06.12.2019 01:00:00 -3,7 -4,6 7 4 - - ZZW 1021,1 4,6
06.12.2019 00:00:00 -3,7 -4,7 7 4 18 10 ZW 1022,0 4,9
05.12.2019 23:00:00 -2,9 -4,6 7 4 18 10 ZZW 1021,2 7
05.12.2019 22:00:00 -2,6 -4,1 7 4 - - ZZW 1021,7 6
05.12.2019 21:00:00 -1,8 -3,5 7 4 22 12 ZW 1021,8 7
05.12.2019 20:00:00 -1,0 -2,4 8 4 18 10 ZW 1022,0 6
05.12.2019 19:00:00 -0,8 -2,2 11 6 - - ZW 1022,1 6
05.12.2019 18:00:00 0,2 -1,8 11 6 14 8 ZZW 1022,0 8
05.12.2019 17:00:00 0,4 -1,8 7 4 14 8 ZZW 1022,1 9
05.12.2019 16:00:00 2,0 -1,9 7 4 - - ZZW 1021,7 12
05.12.2019 15:00:00 3,2 -2,1 7 4 14 8 ZZW 1021,3 20
05.12.2019 14:00:00 3,4 -2,0 7 4 14 8 ZZW 1021,2 15
05.12.2019 13:00:00 2,6 -1,8 11 6 - - ZW 1022,2 17
05.12.2019 12:00:00 1,6 -1,7 7 4 14 8 ZW 1023,0 11
05.12.2019 11:00:00 0,6 -1,9 4 2 7 4 N 1023,6 13
05.12.2019 10:00:00 -3,2 -4,4 4 2 - - N 1024,5 11
05.12.2019 09:00:00 -6,5 -7,2 2 1 7 4 - 1025,0 10
05.12.2019 08:00:00 -6,0 -6,4 4 2 7 4 N 1024,0 7
05.12.2019 07:00:00 -6,4 -7,0 4 2 - - N 1024,0 10
05.12.2019 06:00:00 -5,5 -5,8 4 2 7 4 N 1024,0 6
05.12.2019 05:00:00 -5,0 -5,6 4 2 4 2 N 1023,6 11
05.12.2019 04:00:00 -5,1 -5,7 4 2 - - N 1023,5 13
05.12.2019 03:00:00 -5,1 -6,0 4 2 7 4 N 1023,6 17
05.12.2019 02:00:00 -4,1 -5,4 4 2 11 6 N 1022,7 19
05.12.2019 01:00:00 -3,3 -4,8 4 2 - - N 1022,5 20
05.12.2019 00:00:00 -3,2 -5,3 4 2 11 6 N 1022,8 20
04.12.2019 23:00:00 -3,2 -5,3 4 2 7 4 N 1022,5 20
04.12.2019 22:00:00 -3,1 -4,6 4 2 - - N 1022,6 20
04.12.2019 21:00:00 -2,3 -4,7 4 2 7 4 N 1022,7 20
04.12.2019 20:00:00 -3,1 -4,1 4 2 7 4 N 1022,7 20
04.12.2019 19:00:00 -2,0 -3,8 4 2 - - N 1022,1 20
04.12.2019 18:00:00 -1,0 -3,6 4 2 7 4 N 1021,8 20
04.12.2019 17:00:00 1,0 -4,4 4 2 11 6 N 1021,5 20
04.12.2019 16:00:00 4,0 -4,0 4 2 - - N 1020,7 20
04.12.2019 15:00:00 5,8 -4,0 4 2 14 8 N 1020,0 20
04.12.2019 14:00:00 5,9 -4,6 7 4 18 10 ZO 1020,3 20
04.12.2019 13:00:00 5,5 -3,9 11 6 - - ZO 1021,1 20
04.12.2019 12:00:00 4,4 -1,2 7 4 14 8 OZO 1022,1 20
04.12.2019 11:00:00 1,8 -0,1 4 2 7 4 N 1023,7 20
04.12.2019 10:00:00 -1,5 -1,9 4 2 - - N 1024,9 13
04.12.2019 09:00:00 -3,6 -3,9 4 2 4 2 N 1025,5 14
04.12.2019 08:00:00 -4,0 -4,5 4 2 7 4 N 1025,5 11
04.12.2019 07:00:00 -3,0 -3,2 4 2 - - N 1025,2 11
04.12.2019 06:00:00 -3,3 -3,6 4 2 4 2 N 1025,5 11
04.12.2019 05:00:00 -3,3 -3,5 4 2 4 2 N 1025,5 7
04.12.2019 04:00:00 -2,4 -2,6 0 0 - - N 1025,5 7
04.12.2019 03:00:00 -1,8 -1,8 4 2 4 2 N 1026,2 5
04.12.2019 02:00:00 -1,3 -1,4 4 2 7 4 N 1026,5 5
04.12.2019 01:00:00 -0,7 -0,8 4 2 - - N 1027,0 5
04.12.2019 00:00:00 -0,6 -0,8 4 2 11 6 N 1027,7 7
03.12.2019 23:00:00 0,2 0,0 4 2 7 4 - 1027,7 9
03.12.2019 22:00:00 1,1 0,0 4 2 - - N 1027,7 20
03.12.2019 21:00:00 2,0 0,3 4 2 11 6 N 1028,0 20
03.12.2019 20:00:00 2,5 0,7 4 2 11 6 N 1028,2 20
03.12.2019 19:00:00 2,6 1,1 4 2 - - N 1028,4 17
03.12.2019 18:00:00 2,7 1,5 4 2 7 4 N 1028,5 15
03.12.2019 17:00:00 3,0 1,8 4 2 11 6 N 1028,7 18
03.12.2019 16:00:00 3,4 1,2 4 2 - - N 1028,4 19
03.12.2019 15:00:00 3,7 1,2 4 2 11 6 N 1028,0 20
03.12.2019 14:00:00 3,9 1,4 4 2 7 4 N 1028,5 18
03.12.2019 13:00:00 3,7 2,1 4 2 - - N 1029,0 19
03.12.2019 12:00:00 3,5 2,9 4 2 4 2 N 1030,0 8
03.12.2019 11:00:00 3,4 2,9 4 2 4 2 N 1030,4 18
03.12.2019 10:00:00 2,9 2,9 0 0 - - N 1030,5 5
03.12.2019 09:00:00 2,2 2,1 4 2 4 2 N 1030,7 3,0
03.12.2019 08:00:00 2,2 2,1 4 2 11 6 N 1030,2 4,9
03.12.2019 07:00:00 2,4 2,3 7 4 - - N 1030,0 5
03.12.2019 06:00:00 2,7 2,7 4 2 11 6 - 1030,0 2,0
03.12.2019 05:00:00 2,7 2,7 5 3 11 6 N 1030,0 3,0
03.12.2019 04:00:00 2,5 2,5 4 2 - - N 1030,0 8
03.12.2019 03:00:00 2,7 2,7 8 4 14 8 N 1030,2 5
03.12.2019 02:00:00 2,5 2,5 4 2 14 8 N 1030,0 0,3
03.12.2019 01:00:00 2,2 2,2 7 4 - - NNW 1030,0 0,4
03.12.2019 00:00:00 2,4 2,3 7 4 18 10 NNW 1030,2 0,1
02.12.2019 23:00:00 2,5 2,5 11 6 18 10 NNW 1029,7 0,2
02.12.2019 22:00:00 2,0 2,0 4 2 - - N 1029,7 1,3
02.12.2019 21:00:00 2,2 2,2 4 2 11 6 N 1030,0 0,5
02.12.2019 20:00:00 2,0 2,0 5 3 11 6 NNW 1029,7 0,7
02.12.2019 19:00:00 1,7 1,7 4 2 - - N 1029,2 4,1
02.12.2019 18:00:00 1,7 1,6 7 4 11 6 N 1029,0 1,4
02.12.2019 17:00:00 1,5 1,4 7 4 11 6 WNW 1028,7 4,5
02.12.2019 16:00:00 1,5 1,4 7 4 - - WNW 1028,7 0,8
02.12.2019 15:00:00 1,5 1,2 4 2 14 8 N 1028,2 1,6
02.12.2019 14:00:00 2,0 1,6 7 4 18 10 NW 1028,0 7
02.12.2019 13:00:00 1,6 1,1 11 6 - - NW 1028,5 7
02.12.2019 12:00:00 1,7 1,0 7 4 18 10 NNW 1028,2 20
02.12.2019 11:00:00 1,2 0,5 11 6 14 8 NW 1028,4 20
02.12.2019 10:00:00 -0,2 -0,3 11 6 - - NNW 1028,0 8
02.12.2019 09:00:00 -0,6 -0,6 9 5 14 8 NNW 1027,4 1,5
02.12.2019 08:00:00 -0,6 -0,7 7 4 22 12 NNW 1026,7 4,2
02.12.2019 07:00:00 -0,3 -1,2 7 4 - - NNW 1026,2 20
02.12.2019 06:00:00 -0,9 -2,0 7 4 14 8 N 1025,9 20
02.12.2019 05:00:00 -2,8 -4,9 7 4 14 8 NNO 1026,0 20
02.12.2019 04:00:00 -1,6 -4,5 11 6 - - NO 1025,0 20
02.12.2019 03:00:00 -2,5 -4,5 7 4 18 10 NNO 1025,0 19
02.12.2019 02:00:00 -2,0 -3,8 11 6 18 10 NNO 1024,2 15
02.12.2019 01:00:00 -2,9 -4,3 11 6 - - NNO 1024,0 11
02.12.2019 00:00:00 -2,3 -4,1 7 4 18 10 NO 1023,6 16
01.12.2019 23:00:00 -1,7 -3,1 7 4 14 8 NNO 1022,7 19
01.12.2019 22:00:00 -1,1 -2,8 7 4 - - NNO 1022,2 20
01.12.2019 21:00:00 -0,9 -2,8 7 4 14 8 N 1021,6 20
01.12.2019 20:00:00 -0,9 -2,8 7 4 18 10 NO 1021,3 20
01.12.2019 19:00:00 -0,8 -3,0 11 6 - - ONO 1020,7 20
01.12.2019 18:00:00 -0,9 -2,8 11 6 22 12 ONO 1020,1 20
01.12.2019 17:00:00 -0,9 -3,1 7 4 22 12 ONO 1019,3 20
01.12.2019 16:00:00 -0,8 -2,9 11 6 - - ONO 1019,2 20
01.12.2019 15:00:00 -0,7 -2,8 11 6 18 10 ONO 1019,1 20
01.12.2019 14:00:00 -0,6 -2,8 7 4 22 12 ONO 1019,2 20
01.12.2019 13:00:00 -0,5 -2,9 11 6 - - O 1019,2 20
01.12.2019 12:00:00 -0,2 -3,5 11 6 29 16 O 1019,3 20
01.12.2019 11:00:00 -0,4 -3,5 14 8 29 16 O 1019,2 20
01.12.2019 10:00:00 -0,7 -3,9 18 10 - - O 1018,7 20
01.12.2019 09:00:00 -1,1 -3,7 14 8 25 14 O 1019,0 20
01.12.2019 08:00:00 -1,2 -3,7 11 6 29 16 O 1018,6 20
01.12.2019 07:00:00 -1,0 -4,0 14 8 - - O 1018,2 20
01.12.2019 06:00:00 -1,1 -3,8 18 10 25 14 O 1018,3 20
01.12.2019 05:00:00 -1,4 -3,8 11 6 22 12 OZO 1019,7 20
01.12.2019 04:00:00 -0,9 -3,7 7 4 - - OZO 1019,7 20
01.12.2019 03:00:00 -0,9 -3,7 7 4 22 12 OZO 1020,8 20
01.12.2019 02:00:00 -0,9 -2,7 11 6 22 12 OZO 1020,7 20
01.12.2019 01:00:00 -1,2 -2,3 7 4 - - O 1021,6 20
01.12.2019 00:00:00 -1,2 -2,1 7 4 22 12 OZO 1022,1 20
30.11.2019 23:00:00 -1,4 -1,9 7 4 22 12 O 1022,3 14
30.11.2019 22:00:00 -2,5 -2,8 4 2 - - N 1023,7 19
30.11.2019 21:00:00 -2,3 -2,7 4 2 11 6 N 1024,0 15
30.11.2019 20:00:00 -2,6 -2,9 4 2 11 6 N 1024,4 15
30.11.2019 19:00:00 -2,1 -2,3 4 2 - - N 1024,0 15
30.11.2019 18:00:00 -1,7 -1,8 4 2 11 6 N 1024,2 13
30.11.2019 17:00:00 -0,7 -1,4 4 2 11 6 N 1024,2 20
30.11.2019 16:00:00 0,5 -0,8 7 4 - - O 1023,6 20
30.11.2019 15:00:00 2,6 -0,6 7 4 14 8 OZO 1023,5 20
30.11.2019 14:00:00 1,7 -0,4 4 2 4 2 N 1024,2 20
30.11.2019 13:00:00 1,3 0,9 4 2 - - N 1024,7 18
30.11.2019 12:00:00 0,7 0,7 4 2 7 4 N 1025,0 1,9
30.11.2019 11:00:00 -0,2 -0,2 4 2 7 4 N 1025,5 0,2
30.11.2019 10:00:00 -0,5 -0,5 4 2 - - N 1025,2 0,1
30.11.2019 09:00:00 -0,1 -0,1 4 2 4 2 N 1024,7 0,5
30.11.2019 08:00:00 0,0 -0,1 4 2 4 2 N 1024,5 2,5
30.11.2019 07:00:00 0,2 0,0 4 2 - - N 1024,2 5
30.11.2019 06:00:00 0,6 0,6 4 2 11 6 N 1024,0 5
30.11.2019 05:00:00 0,6 0,6 5 3 11 6 WZW 1024,0 0,7
30.11.2019 04:00:00 0,8 0,7 7 4 - - N 1023,8 1,0
30.11.2019 03:00:00 0,5 0,3 4 2 7 4 N 1023,6 2,4
30.11.2019 02:00:00 -0,2 -0,3 4 2 7 4 N 1022,8 5

tt = temperatuur
td = dauwpunt
ff = windsnelheid
fx = windstoten
dd = windrichting
ppp = luchtdruk
vv = zicht

Weerstations in de omgeving